Year,Month,Day,Hour,Minute,Value (Times are PST for temperature in C)
2015,11,25,00,00,-0.90
2015,11,25,00,01,-0.90
2015,11,25,00,02,-0.90
2015,11,25,00,03,-0.90
2015,11,25,00,04,-1.00
2015,11,25,00,05,-1.00
2015,11,25,00,06,-1.00
2015,11,25,00,07,-0.90
2015,11,25,00,08,-0.90
2015,11,25,00,09,-0.90
2015,11,25,00,10,-0.90
2015,11,25,00,11,-0.90
2015,11,25,00,12,-0.80
2015,11,25,00,13,-0.80
2015,11,25,00,14,-0.80
2015,11,25,00,15,-0.80
2015,11,25,00,16,-0.80
2015,11,25,00,17,-0.80
2015,11,25,00,18,-0.80
2015,11,25,00,19,-0.80
2015,11,25,00,20,-0.80
2015,11,25,00,21,-0.80
2015,11,25,00,22,-0.80
2015,11,25,00,23,-0.80
2015,11,25,00,24,-0.80
2015,11,25,00,25,-0.80
2015,11,25,00,26,-0.80
2015,11,25,00,27,-0.70
2015,11,25,00,28,-0.70
2015,11,25,00,29,-0.70
2015,11,25,00,30,-0.70
2015,11,25,00,31,-0.70
2015,11,25,00,32,-0.70
2015,11,25,00,33,-0.60
2015,11,25,00,34,-0.60
2015,11,25,00,35,-0.60
2015,11,25,00,36,-0.60
2015,11,25,00,37,-0.50
2015,11,25,00,38,-0.40
2015,11,25,00,39,-0.40
2015,11,25,00,40,-0.40
2015,11,25,00,41,-0.30
2015,11,25,00,42,-0.30
2015,11,25,00,43,-0.30
2015,11,25,00,44,-0.30
2015,11,25,00,45,-0.30
2015,11,25,00,46,-0.30
2015,11,25,00,47,-0.30
2015,11,25,00,48,-0.30
2015,11,25,00,49,-0.30
2015,11,25,00,50,-0.30
2015,11,25,00,51,-0.30
2015,11,25,00,52,-0.30
2015,11,25,00,53,-0.30
2015,11,25,00,54,-0.30
2015,11,25,00,55,-0.30
2015,11,25,00,56,-0.30
2015,11,25,00,57,-0.30
2015,11,25,00,58,-0.30
2015,11,25,00,59,-0.40
2015,11,25,01,00,-0.40
2015,11,25,01,01,-0.40
2015,11,25,01,02,-0.40
2015,11,25,01,03,-0.40
2015,11,25,01,04,-0.40
2015,11,25,01,05,-0.40
2015,11,25,01,06,-0.40
2015,11,25,01,07,-0.50
2015,11,25,01,08,-0.50
2015,11,25,01,09,-0.50
2015,11,25,01,10,-0.50
2015,11,25,01,11,-0.50
2015,11,25,01,12,-0.60
2015,11,25,01,13,-0.60
2015,11,25,01,14,-0.60
2015,11,25,01,15,-0.60
2015,11,25,01,16,-0.60
2015,11,25,01,17,-0.60
2015,11,25,01,18,-0.60
2015,11,25,01,19,-0.60
2015,11,25,01,20,-0.70
2015,11,25,01,21,-0.70
2015,11,25,01,22,-0.70
2015,11,25,01,23,-0.70
2015,11,25,01,24,-0.70
2015,11,25,01,25,-0.70
2015,11,25,01,26,-0.70
2015,11,25,01,27,-0.70
2015,11,25,01,28,-0.70
2015,11,25,01,29,-0.70
2015,11,25,01,30,-0.80
2015,11,25,01,31,-0.80
2015,11,25,01,32,-0.80
2015,11,25,01,33,-0.80
2015,11,25,01,34,-0.80
2015,11,25,01,35,-0.80
2015,11,25,01,36,-0.80
2015,11,25,01,37,-0.80
2015,11,25,01,38,-0.90
2015,11,25,01,39,-0.90
2015,11,25,01,40,-0.90
2015,11,25,01,41,-1.00
2015,11,25,01,42,-1.00
2015,11,25,01,43,-1.10
2015,11,25,01,44,-1.10
2015,11,25,01,45,-1.20
2015,11,25,01,46,-1.20
2015,11,25,01,47,-1.20
2015,11,25,01,48,-1.20
2015,11,25,01,49,-1.30
2015,11,25,01,50,-1.30
2015,11,25,01,51,-1.30
2015,11,25,01,52,-1.30
2015,11,25,01,53,-1.30
2015,11,25,01,54,-1.30
2015,11,25,01,55,-1.40
2015,11,25,01,56,-1.40
2015,11,25,01,57,-1.40
2015,11,25,01,58,-1.40
2015,11,25,01,59,-1.40
2015,11,25,02,00,-1.40
2015,11,25,02,01,-1.40
2015,11,25,02,02,-1.40
2015,11,25,02,03,-1.40
2015,11,25,02,04,-1.30
2015,11,25,02,05,-1.30
2015,11,25,02,06,-1.30
2015,11,25,02,07,-1.30
2015,11,25,02,08,-1.30
2015,11,25,02,09,-1.30
2015,11,25,02,10,-1.30
2015,11,25,02,11,-1.30
2015,11,25,02,12,-1.20
2015,11,25,02,13,-1.20
2015,11,25,02,14,-1.20
2015,11,25,02,15,-1.20
2015,11,25,02,16,-1.20
2015,11,25,02,17,-1.20
2015,11,25,02,18,-1.20
2015,11,25,02,19,-1.20
2015,11,25,02,20,-1.20
2015,11,25,02,21,-1.20
2015,11,25,02,22,-1.20
2015,11,25,02,23,-1.20
2015,11,25,02,24,-1.20
2015,11,25,02,25,-1.20
2015,11,25,02,26,-1.20
2015,11,25,02,27,-1.20
2015,11,25,02,28,-1.20
2015,11,25,02,29,-1.20
2015,11,25,02,30,-1.20
2015,11,25,02,31,-1.20
2015,11,25,02,32,-1.20
2015,11,25,02,33,-1.20
2015,11,25,02,34,-1.20
2015,11,25,02,35,-1.20
2015,11,25,02,36,-1.20
2015,11,25,02,37,-1.20
2015,11,25,02,38,-1.20
2015,11,25,02,39,-1.20
2015,11,25,02,40,-1.30
2015,11,25,02,41,-1.30
2015,11,25,02,42,-1.30
2015,11,25,02,43,-1.30
2015,11,25,02,44,-1.40
2015,11,25,02,45,-1.40
2015,11,25,02,46,-1.50
2015,11,25,02,47,-1.50
2015,11,25,02,48,-1.60
2015,11,25,02,49,-1.60
2015,11,25,02,50,-1.60
2015,11,25,02,51,-1.70
2015,11,25,02,52,-1.70
2015,11,25,02,53,-1.70
2015,11,25,02,54,-1.70
2015,11,25,02,55,-1.70
2015,11,25,02,56,-1.70
2015,11,25,02,57,-1.70
2015,11,25,02,58,-1.70
2015,11,25,02,59,-1.70
2015,11,25,03,00,-1.80
2015,11,25,03,01,-1.80
2015,11,25,03,02,-1.80
2015,11,25,03,03,-1.80
2015,11,25,03,06,-1.90
2015,11,25,03,07,-1.90
2015,11,25,03,08,-1.90
2015,11,25,03,09,-1.90
2015,11,25,03,10,-1.90
2015,11,25,03,11,-2.00
2015,11,25,03,12,-2.00
2015,11,25,03,13,-2.00
2015,11,25,03,14,-2.00
2015,11,25,03,15,-2.10
2015,11,25,03,16,-2.10
2015,11,25,03,17,-2.10
2015,11,25,03,18,-2.10
2015,11,25,03,19,-2.20
2015,11,25,03,20,-2.20
2015,11,25,03,21,-2.20
2015,11,25,03,22,-2.20
2015,11,25,03,23,-2.20
2015,11,25,03,24,-2.20
2015,11,25,03,25,-2.20
2015,11,25,03,26,-2.20
2015,11,25,03,27,-2.20
2015,11,25,03,28,-2.20
2015,11,25,03,29,-2.20
2015,11,25,03,30,-2.20
2015,11,25,03,31,-2.20
2015,11,25,03,32,-2.20
2015,11,25,03,33,-2.20
2015,11,25,03,34,-2.20
2015,11,25,03,35,-2.20
2015,11,25,03,36,-2.20
2015,11,25,03,37,-2.20
2015,11,25,03,38,-2.20
2015,11,25,03,39,-2.20
2015,11,25,03,40,-2.20
2015,11,25,03,41,-2.20
2015,11,25,03,42,-2.20
2015,11,25,03,43,-2.20
2015,11,25,03,44,-2.20
2015,11,25,03,45,-2.30
2015,11,25,03,46,-2.30
2015,11,25,03,47,-2.30
2015,11,25,03,48,-2.30
2015,11,25,03,49,-2.30
2015,11,25,03,50,-2.30
2015,11,25,03,51,-2.30
2015,11,25,03,52,-2.30
2015,11,25,03,53,-2.40
2015,11,25,03,54,-2.30
2015,11,25,03,55,-2.30
2015,11,25,03,56,-2.30
2015,11,25,03,57,-2.30
2015,11,25,03,58,-2.30
2015,11,25,03,59,-2.30
2015,11,25,04,00,-2.20
2015,11,25,04,01,-2.20
2015,11,25,04,02,-2.20
2015,11,25,04,03,-2.20
2015,11,25,04,04,-2.20
2015,11,25,04,05,-2.10
2015,11,25,04,06,-2.10
2015,11,25,04,07,-2.10
2015,11,25,04,08,-2.00
2015,11,25,04,09,-2.00
2015,11,25,04,10,-2.00
2015,11,25,04,11,-2.00
2015,11,25,04,12,-2.00
2015,11,25,04,13,-2.00
2015,11,25,04,14,-2.10
2015,11,25,04,15,-2.10
2015,11,25,04,16,-2.10
2015,11,25,04,17,-2.10
2015,11,25,04,18,-2.20
2015,11,25,04,19,-2.20
2015,11,25,04,20,-2.20
2015,11,25,04,21,-2.20
2015,11,25,04,22,-2.20
2015,11,25,04,23,-2.20
2015,11,25,04,24,-2.30
2015,11,25,04,25,-2.30
2015,11,25,04,26,-2.30
2015,11,25,04,27,-2.30
2015,11,25,04,28,-2.30
2015,11,25,04,29,-2.30
2015,11,25,04,30,-2.30
2015,11,25,04,31,-2.20
2015,11,25,04,32,-2.20
2015,11,25,04,33,-2.20
2015,11,25,04,34,-2.20
2015,11,25,04,35,-2.20
2015,11,25,04,36,-2.20
2015,11,25,04,37,-2.20
2015,11,25,04,38,-2.20
2015,11,25,04,39,-2.20
2015,11,25,04,40,-2.20
2015,11,25,04,41,-2.20
2015,11,25,04,42,-2.30
2015,11,25,04,43,-2.30
2015,11,25,04,44,-2.30
2015,11,25,04,45,-2.30
2015,11,25,04,46,-2.30
2015,11,25,04,47,-2.30
2015,11,25,04,48,-2.30
2015,11,25,04,49,-2.30
2015,11,25,04,50,-2.40
2015,11,25,04,51,-2.40
2015,11,25,04,52,-2.40
2015,11,25,04,53,-2.40
2015,11,25,04,54,-2.40
2015,11,25,04,55,-2.40
2015,11,25,04,56,-2.40
2015,11,25,04,57,-2.40
2015,11,25,04,58,-2.40
2015,11,25,04,59,-2.40
2015,11,25,05,00,-2.40
2015,11,25,05,01,-2.30
2015,11,25,05,02,-2.30
2015,11,25,05,03,-2.30
2015,11,25,05,04,-2.30
2015,11,25,05,05,-2.30
2015,11,25,05,06,-2.30
2015,11,25,05,07,-2.30
2015,11,25,05,08,-2.30
2015,11,25,05,09,-2.30
2015,11,25,05,10,-2.30
2015,11,25,05,11,-2.20
2015,11,25,05,12,-2.20
2015,11,25,05,13,-2.20
2015,11,25,05,14,-2.20
2015,11,25,05,15,-2.20
2015,11,25,05,16,-2.20
2015,11,25,05,17,-2.20
2015,11,25,05,18,-2.20
2015,11,25,05,19,-2.20
2015,11,25,05,20,-2.20
2015,11,25,05,21,-2.20
2015,11,25,05,22,-2.30
2015,11,25,05,23,-2.30
2015,11,25,05,24,-2.30
2015,11,25,05,25,-2.30
2015,11,25,05,26,-2.30
2015,11,25,05,27,-2.30
2015,11,25,05,28,-2.30
2015,11,25,05,29,-2.30
2015,11,25,05,30,-2.30
2015,11,25,05,31,-2.30
2015,11,25,05,32,-2.30
2015,11,25,05,33,-2.30
2015,11,25,05,34,-2.30
2015,11,25,05,35,-2.30
2015,11,25,05,36,-2.30
2015,11,25,05,37,-2.20
2015,11,25,05,38,-2.20
2015,11,25,05,39,-2.20
2015,11,25,05,40,-2.20
2015,11,25,05,41,-2.20
2015,11,25,05,42,-2.10
2015,11,25,05,43,-2.10
2015,11,25,05,44,-2.00
2015,11,25,05,45,-2.00
2015,11,25,05,46,-1.90
2015,11,25,05,47,-1.90
2015,11,25,05,48,-1.90
2015,11,25,05,49,-1.90
2015,11,25,05,50,-1.90
2015,11,25,05,51,-1.90
2015,11,25,05,52,-1.90
2015,11,25,05,53,-1.90
2015,11,25,05,54,-1.90
2015,11,25,05,55,-1.80
2015,11,25,05,56,-1.80
2015,11,25,05,57,-1.80
2015,11,25,05,58,-1.80
2015,11,25,05,59,-1.80
2015,11,25,06,00,-1.80
2015,11,25,06,01,-1.80
2015,11,25,06,02,-1.70
2015,11,25,06,03,-1.70
2015,11,25,06,04,-1.70
2015,11,25,06,05,-1.70
2015,11,25,06,06,-1.70
2015,11,25,06,07,-1.70
2015,11,25,06,08,-1.70
2015,11,25,06,09,-1.70
2015,11,25,06,10,-1.70
2015,11,25,06,11,-1.60
2015,11,25,06,12,-1.60
2015,11,25,06,13,-1.60
2015,11,25,06,14,-1.50
2015,11,25,06,15,-1.50
2015,11,25,06,16,-1.50
2015,11,25,06,17,-1.40
2015,11,25,06,18,-1.40
2015,11,25,06,19,-1.40
2015,11,25,06,20,-1.30
2015,11,25,06,21,-1.30
2015,11,25,06,22,-1.30
2015,11,25,06,23,-1.20
2015,11,25,06,24,-1.20
2015,11,25,06,25,-1.20
2015,11,25,06,26,-1.10
2015,11,25,06,27,-1.10
2015,11,25,06,28,-1.00
2015,11,25,06,29,-0.90
2015,11,25,06,30,-0.90
2015,11,25,06,31,-0.90
2015,11,25,06,32,-0.80
2015,11,25,06,33,-0.80
2015,11,25,06,34,-0.80
2015,11,25,06,35,-0.80
2015,11,25,06,36,-0.80
2015,11,25,06,37,-0.70
2015,11,25,06,38,-0.70
2015,11,25,06,39,-0.70
2015,11,25,06,40,-0.70
2015,11,25,06,41,-0.60
2015,11,25,06,42,-0.60
2015,11,25,06,43,-0.60
2015,11,25,06,44,-0.60
2015,11,25,06,45,-0.50
2015,11,25,06,46,-0.50
2015,11,25,06,47,-0.50
2015,11,25,06,48,-0.40
2015,11,25,06,49,-0.40
2015,11,25,06,50,-0.40
2015,11,25,06,51,-0.40
2015,11,25,06,52,-0.40
2015,11,25,06,53,-0.40
2015,11,25,06,54,-0.40
2015,11,25,06,55,-0.40
2015,11,25,06,56,-0.30
2015,11,25,06,57,-0.30
2015,11,25,06,58,-0.30
2015,11,25,06,59,-0.30
2015,11,25,07,00,-0.20
2015,11,25,07,01,-0.20
2015,11,25,07,02,-0.20
2015,11,25,07,03,-0.20
2015,11,25,07,04,-0.20
2015,11,25,07,05,-0.20
2015,11,25,07,06,-0.20
2015,11,25,07,07,-0.20
2015,11,25,07,08,-0.20
2015,11,25,07,09,-0.20
2015,11,25,07,10,-0.20
2015,11,25,07,11,-0.10
2015,11,25,07,12,-0.10
2015,11,25,07,13,0.00
2015,11,25,07,14,0.10
2015,11,25,07,15,0.10
2015,11,25,07,16,0.20
2015,11,25,07,17,0.20
2015,11,25,07,18,0.10
2015,11,25,07,19,0.10
2015,11,25,07,20,0.10
2015,11,25,07,21,0.10
2015,11,25,07,22,0.00
2015,11,25,07,23,0.00
2015,11,25,07,24,0.00
2015,11,25,07,25,0.00
2015,11,25,07,26,0.00
2015,11,25,07,27,0.00
2015,11,25,07,28,0.00
2015,11,25,07,29,0.00
2015,11,25,07,30,0.10
2015,11,25,07,31,0.10
2015,11,25,07,32,0.10
2015,11,25,07,33,0.10
2015,11,25,07,34,0.10
2015,11,25,07,35,0.10
2015,11,25,07,36,0.10
2015,11,25,07,37,0.10
2015,11,25,07,38,0.10
2015,11,25,07,39,0.10
2015,11,25,07,40,0.10
2015,11,25,07,41,0.10
2015,11,25,07,42,0.20
2015,11,25,07,43,0.20
2015,11,25,07,44,0.20
2015,11,25,07,45,0.20
2015,11,25,07,46,0.20
2015,11,25,07,47,0.30
2015,11,25,07,48,0.30
2015,11,25,07,49,0.30
2015,11,25,07,50,0.30
2015,11,25,07,51,0.30
2015,11,25,07,52,0.30
2015,11,25,07,53,0.30
2015,11,25,07,54,0.30
2015,11,25,07,55,0.30
2015,11,25,07,56,0.20
2015,11,25,07,57,0.20
2015,11,25,07,58,0.20
2015,11,25,07,59,0.20
2015,11,25,08,00,0.20
2015,11,25,08,01,0.20
2015,11,25,08,02,0.20
2015,11,25,08,03,0.20
2015,11,25,08,04,0.20
2015,11,25,08,05,0.20
2015,11,25,08,06,0.20
2015,11,25,08,07,0.20
2015,11,25,08,08,0.30
2015,11,25,08,09,0.30
2015,11,25,08,10,0.30
2015,11,25,08,11,0.30
2015,11,25,08,12,0.30
2015,11,25,08,13,0.30
2015,11,25,08,14,0.30
2015,11,25,08,15,0.30
2015,11,25,08,16,0.30
2015,11,25,08,17,0.30
2015,11,25,08,18,0.30
2015,11,25,08,19,0.40
2015,11,25,08,20,0.40
2015,11,25,08,21,0.40
2015,11,25,08,22,0.40
2015,11,25,08,23,0.40
2015,11,25,08,24,0.50
2015,11,25,08,25,0.50
2015,11,25,08,26,0.60
2015,11,25,08,27,0.60
2015,11,25,08,28,0.60
2015,11,25,08,29,0.60
2015,11,25,08,30,0.60
2015,11,25,08,31,0.70
2015,11,25,08,32,0.70
2015,11,25,08,33,0.70
2015,11,25,08,34,0.80
2015,11,25,08,35,0.80
2015,11,25,08,36,0.80
2015,11,25,08,37,0.80
2015,11,25,08,38,0.90
2015,11,25,08,39,0.90
2015,11,25,08,40,0.90
2015,11,25,08,41,1.00
2015,11,25,08,42,1.00
2015,11,25,08,43,1.10
2015,11,25,08,44,1.20
2015,11,25,08,45,1.30
2015,11,25,08,46,1.30
2015,11,25,08,47,1.30
2015,11,25,08,48,1.30
2015,11,25,08,49,1.40
2015,11,25,08,50,1.50
2015,11,25,08,51,1.50
2015,11,25,08,52,1.60
2015,11,25,08,53,1.60
2015,11,25,08,54,1.70
2015,11,25,08,55,1.70
2015,11,25,08,56,1.70
2015,11,25,08,57,1.80
2015,11,25,08,58,1.80
2015,11,25,08,59,1.80
2015,11,25,09,00,1.80
2015,11,25,09,01,1.90
2015,11,25,09,02,1.90
2015,11,25,09,03,1.90
2015,11,25,09,04,1.90
2015,11,25,09,05,2.00
2015,11,25,09,06,2.00
2015,11,25,09,07,2.10
2015,11,25,09,08,2.10
2015,11,25,09,09,2.20
2015,11,25,09,10,2.20
2015,11,25,09,11,2.30
2015,11,25,09,12,2.40
2015,11,25,09,13,2.40
2015,11,25,09,14,2.50
2015,11,25,09,15,2.60
2015,11,25,09,16,2.70
2015,11,25,09,17,2.70
2015,11,25,09,18,2.80
2015,11,25,09,19,2.80
2015,11,25,09,20,2.90
2015,11,25,09,21,3.00
2015,11,25,09,22,3.10
2015,11,25,09,23,3.20
2015,11,25,09,24,3.20
2015,11,25,09,25,3.30
2015,11,25,09,26,3.40
2015,11,25,09,27,3.40
2015,11,25,09,28,3.50
2015,11,25,09,29,3.60
2015,11,25,09,30,3.70
2015,11,25,09,31,3.80
2015,11,25,09,32,3.90
2015,11,25,09,33,4.10
2015,11,25,09,34,4.20
2015,11,25,09,35,4.30
2015,11,25,09,36,4.40
2015,11,25,09,37,4.50
2015,11,25,09,38,4.60
2015,11,25,09,39,4.70
2015,11,25,09,40,4.80
2015,11,25,09,41,4.90
2015,11,25,09,42,5.00
2015,11,25,09,43,5.00
2015,11,25,09,44,5.10
2015,11,25,09,45,5.20
2015,11,25,09,46,5.20
2015,11,25,09,47,5.30
2015,11,25,09,48,5.30
2015,11,25,09,49,5.30
2015,11,25,09,50,5.40
2015,11,25,09,51,5.40
2015,11,25,09,52,5.50
2015,11,25,09,53,5.50
2015,11,25,09,54,5.60
2015,11,25,09,55,5.60
2015,11,25,09,56,5.60
2015,11,25,09,57,5.70
2015,11,25,09,58,5.70
2015,11,25,09,59,5.80
2015,11,25,10,00,5.80
2015,11,25,10,01,5.80
2015,11,25,10,02,5.80
2015,11,25,10,03,5.80
2015,11,25,10,04,5.80
2015,11,25,10,05,5.80
2015,11,25,10,06,5.80
2015,11,25,10,07,5.90
2015,11,25,10,08,5.90
2015,11,25,10,09,5.90
2015,11,25,10,10,6.00
2015,11,25,10,11,6.00
2015,11,25,10,12,6.10
2015,11,25,10,13,6.20
2015,11,25,10,14,6.20
2015,11,25,10,15,6.30
2015,11,25,10,16,6.30
2015,11,25,10,17,6.40
2015,11,25,10,18,6.40
2015,11,25,10,19,6.50
2015,11,25,10,20,6.50
2015,11,25,10,21,6.50
2015,11,25,10,22,6.50
2015,11,25,10,23,6.50
2015,11,25,10,24,6.50
2015,11,25,10,25,6.50
2015,11,25,10,26,6.50
2015,11,25,10,27,6.60
2015,11,25,10,28,6.60
2015,11,25,10,29,6.60
2015,11,25,10,30,6.70
2015,11,25,10,31,6.70
2015,11,25,10,32,6.70
2015,11,25,10,33,6.80
2015,11,25,10,34,6.80
2015,11,25,10,35,6.80
2015,11,25,10,36,6.90
2015,11,25,10,37,6.90
2015,11,25,10,38,6.90
2015,11,25,10,39,6.90
2015,11,25,10,40,7.00
2015,11,25,10,41,7.00
2015,11,25,10,42,7.00
2015,11,25,10,43,6.90
2015,11,25,10,44,6.90
2015,11,25,10,45,6.90
2015,11,25,10,46,6.90
2015,11,25,10,47,7.00
2015,11,25,10,48,7.00
2015,11,25,10,49,7.00
2015,11,25,10,50,7.10
2015,11,25,10,51,7.10
2015,11,25,10,52,7.10
2015,11,25,10,53,7.10
2015,11,25,10,54,7.10
2015,11,25,10,55,7.20
2015,11,25,10,56,7.20
2015,11,25,10,57,7.20
2015,11,25,10,58,7.20
2015,11,25,10,59,7.20
2015,11,25,11,00,7.20
2015,11,25,11,01,7.20
2015,11,25,11,02,7.20
2015,11,25,11,03,7.20
2015,11,25,11,04,7.20
2015,11,25,11,05,7.30
2015,11,25,11,06,7.30
2015,11,25,11,07,7.30
2015,11,25,11,08,7.40
2015,11,25,11,09,7.40
2015,11,25,11,10,7.40
2015,11,25,11,11,7.40
2015,11,25,11,12,7.40
2015,11,25,11,13,7.50
2015,11,25,11,14,7.40
2015,11,25,11,15,7.40
2015,11,25,11,16,7.40
2015,11,25,11,17,7.40
2015,11,25,11,18,7.40
2015,11,25,11,19,7.40
2015,11,25,11,20,7.50
2015,11,25,11,21,7.50
2015,11,25,11,22,7.50
2015,11,25,11,23,7.60
2015,11,25,11,24,7.60
2015,11,25,11,25,7.60
2015,11,25,11,26,7.70
2015,11,25,11,27,7.70
2015,11,25,11,28,7.80
2015,11,25,11,29,7.80
2015,11,25,11,30,7.80
2015,11,25,11,31,7.80
2015,11,25,11,32,7.90
2015,11,25,11,33,7.90
2015,11,25,11,34,7.80
2015,11,25,11,35,7.80
2015,11,25,11,36,7.80
2015,11,25,11,37,7.80
2015,11,25,11,38,7.80
2015,11,25,11,39,7.80
2015,11,25,11,40,7.80
2015,11,25,11,41,7.70
2015,11,25,11,42,7.70
2015,11,25,11,43,7.70
2015,11,25,11,44,7.70
2015,11,25,11,45,7.70
2015,11,25,11,46,7.60
2015,11,25,11,47,7.60
2015,11,25,11,48,7.70
2015,11,25,11,49,7.70
2015,11,25,11,50,7.70
2015,11,25,11,51,7.70
2015,11,25,11,52,7.80
2015,11,25,11,53,7.80
2015,11,25,11,54,7.80
2015,11,25,11,55,7.90
2015,11,25,11,56,7.90
2015,11,25,11,57,8.00
2015,11,25,11,58,8.10
2015,11,25,11,59,8.10
2015,11,25,12,00,8.10
2015,11,25,12,01,8.10
2015,11,25,12,02,8.10
2015,11,25,12,03,8.10
2015,11,25,12,04,8.10
2015,11,25,12,05,8.10
2015,11,25,12,06,8.10
2015,11,25,12,07,8.10
2015,11,25,12,08,8.10
2015,11,25,12,09,8.10
2015,11,25,12,10,8.20
2015,11,25,12,11,8.20
2015,11,25,12,12,8.20
2015,11,25,12,13,8.10
2015,11,25,12,14,8.10
2015,11,25,12,15,8.10
2015,11,25,12,16,8.10
2015,11,25,12,17,8.10
2015,11,25,12,18,8.20
2015,11,25,12,19,8.20
2015,11,25,12,20,8.20
2015,11,25,12,21,8.20
2015,11,25,12,22,8.20
2015,11,25,12,23,8.20
2015,11,25,12,24,8.20
2015,11,25,12,25,8.30
2015,11,25,12,26,8.30
2015,11,25,12,27,8.30
2015,11,25,12,28,8.30
2015,11,25,12,29,8.20
2015,11,25,12,30,8.20
2015,11,25,12,31,8.20
2015,11,25,12,32,8.30
2015,11,25,12,33,8.30
2015,11,25,12,34,8.30
2015,11,25,12,35,8.30
2015,11,25,12,36,8.40
2015,11,25,12,37,8.30
2015,11,25,12,38,8.40
2015,11,25,12,39,8.50
2015,11,25,12,40,8.50
2015,11,25,12,41,8.60
2015,11,25,12,42,8.60
2015,11,25,12,43,8.60
2015,11,25,12,44,8.60
2015,11,25,12,45,8.50
2015,11,25,12,46,8.40
2015,11,25,12,47,8.40
2015,11,25,12,48,8.40
2015,11,25,12,49,8.40
2015,11,25,12,50,8.40
2015,11,25,12,51,8.40
2015,11,25,12,52,8.40
2015,11,25,12,53,8.40
2015,11,25,12,54,8.40
2015,11,25,12,55,8.40
2015,11,25,12,56,8.40
2015,11,25,12,57,8.40
2015,11,25,12,58,8.50
2015,11,25,12,59,8.50
2015,11,25,13,00,8.50
2015,11,25,13,01,8.50
2015,11,25,13,02,8.50
2015,11,25,13,03,8.40
2015,11,25,13,04,8.50
2015,11,25,13,05,8.50
2015,11,25,13,06,8.60
2015,11,25,13,07,8.60
2015,11,25,13,08,8.70
2015,11,25,13,09,8.70
2015,11,25,13,10,8.60
2015,11,25,13,11,8.70
2015,11,25,13,12,8.70
2015,11,25,13,13,8.70
2015,11,25,13,14,8.70
2015,11,25,13,15,8.70
2015,11,25,13,16,8.80
2015,11,25,13,17,8.80
2015,11,25,13,18,8.80
2015,11,25,13,19,8.80
2015,11,25,13,20,8.70
2015,11,25,13,21,8.70
2015,11,25,13,22,8.70
2015,11,25,13,23,8.70
2015,11,25,13,24,8.70
2015,11,25,13,25,8.60
2015,11,25,13,26,8.60
2015,11,25,13,27,8.60
2015,11,25,13,28,8.50
2015,11,25,13,29,8.50
2015,11,25,13,30,8.50
2015,11,25,13,31,8.40
2015,11,25,13,32,8.50
2015,11,25,13,33,8.50
2015,11,25,13,34,8.50
2015,11,25,13,35,8.50
2015,11,25,13,36,8.50
2015,11,25,13,37,8.50
2015,11,25,13,38,8.50
2015,11,25,13,39,8.60
2015,11,25,13,40,8.60
2015,11,25,13,41,8.60
2015,11,25,13,42,8.70
2015,11,25,13,43,8.80
2015,11,25,13,44,8.90
2015,11,25,13,45,8.90
2015,11,25,13,46,8.90
2015,11,25,13,47,8.90
2015,11,25,13,48,8.90
2015,11,25,13,49,8.90
2015,11,25,13,50,8.80
2015,11,25,13,51,8.70
2015,11,25,13,52,8.70
2015,11,25,13,53,8.80
2015,11,25,13,54,8.80
2015,11,25,13,55,8.80
2015,11,25,13,56,8.80
2015,11,25,13,57,8.80
2015,11,25,13,58,8.80
2015,11,25,13,59,8.80
2015,11,25,14,00,8.80
2015,11,25,14,01,8.80
2015,11,25,14,02,8.90
2015,11,25,14,03,8.90
2015,11,25,14,04,9.00
2015,11,25,14,05,9.00
2015,11,25,14,06,9.10
2015,11,25,14,07,9.10
2015,11,25,14,08,9.00
2015,11,25,14,09,9.00
2015,11,25,14,10,9.00
2015,11,25,14,11,9.10
2015,11,25,14,12,9.10
2015,11,25,14,13,9.20
2015,11,25,14,14,9.20
2015,11,25,14,15,9.10
2015,11,25,14,16,9.10
2015,11,25,14,17,9.10
2015,11,25,14,18,9.00
2015,11,25,14,19,8.90
2015,11,25,14,20,8.80
2015,11,25,14,21,8.80
2015,11,25,14,22,8.80
2015,11,25,14,23,8.70
2015,11,25,14,24,8.70
2015,11,25,14,25,8.70
2015,11,25,14,26,8.60
2015,11,25,14,27,8.60
2015,11,25,14,28,8.60
2015,11,25,14,29,8.60
2015,11,25,14,30,8.50
2015,11,25,14,31,8.60
2015,11,25,14,32,8.60
2015,11,25,14,33,8.60
2015,11,25,14,34,8.70
2015,11,25,14,35,8.70
2015,11,25,14,36,8.70
2015,11,25,14,37,8.70
2015,11,25,14,38,8.70
2015,11,25,14,39,8.70
2015,11,25,14,40,8.70
2015,11,25,14,41,8.70
2015,11,25,14,42,8.70
2015,11,25,14,43,8.70
2015,11,25,14,44,8.70
2015,11,25,14,45,8.70
2015,11,25,14,46,8.70
2015,11,25,14,47,8.70
2015,11,25,14,48,8.70
2015,11,25,14,49,8.70
2015,11,25,14,50,8.70
2015,11,25,14,51,8.60
2015,11,25,14,52,8.60
2015,11,25,14,53,8.60
2015,11,25,14,54,8.60
2015,11,25,14,55,8.60
2015,11,25,14,56,8.50
2015,11,25,14,57,8.50
2015,11,25,14,58,8.60
2015,11,25,14,59,8.60
2015,11,25,15,00,8.50
2015,11,25,15,01,8.50
2015,11,25,15,02,8.50
2015,11,25,15,03,8.40
2015,11,25,15,04,8.50
2015,11,25,15,05,8.40
2015,11,25,15,06,8.40
2015,11,25,15,07,8.40
2015,11,25,15,08,8.30
2015,11,25,15,09,8.30
2015,11,25,15,10,8.30
2015,11,25,15,11,8.30
2015,11,25,15,12,8.30
2015,11,25,15,13,8.30
2015,11,25,15,14,8.30
2015,11,25,15,15,8.30
2015,11,25,15,16,8.20
2015,11,25,15,17,8.20
2015,11,25,15,18,8.20
2015,11,25,15,19,8.20
2015,11,25,15,20,8.10
2015,11,25,15,21,8.10
2015,11,25,15,22,8.10
2015,11,25,15,23,8.10
2015,11,25,15,24,8.10
2015,11,25,15,25,8.10
2015,11,25,15,26,8.10
2015,11,25,15,27,8.10
2015,11,25,15,28,8.10
2015,11,25,15,29,8.10
2015,11,25,15,30,8.00
2015,11,25,15,31,8.00
2015,11,25,15,32,8.00
2015,11,25,15,33,7.90
2015,11,25,15,34,7.90
2015,11,25,15,35,7.90
2015,11,25,15,36,7.80
2015,11,25,15,37,7.80
2015,11,25,15,38,7.80
2015,11,25,15,39,7.80
2015,11,25,15,40,7.70
2015,11,25,15,41,7.70
2015,11,25,15,42,7.70
2015,11,25,15,43,7.70
2015,11,25,15,44,7.70
2015,11,25,15,45,7.60
2015,11,25,15,46,7.60
2015,11,25,15,47,7.60
2015,11,25,15,48,7.50
2015,11,25,15,49,7.50
2015,11,25,15,50,7.50
2015,11,25,15,51,7.40
2015,11,25,15,52,7.40
2015,11,25,15,53,7.30
2015,11,25,15,54,7.30
2015,11,25,15,55,7.20
2015,11,25,15,56,7.20
2015,11,25,15,57,7.20
2015,11,25,15,58,7.10
2015,11,25,15,59,7.10
2015,11,25,16,00,7.00
2015,11,25,16,01,7.00
2015,11,25,16,02,6.90
2015,11,25,16,03,6.90
2015,11,25,16,04,6.80
2015,11,25,16,05,6.80
2015,11,25,16,06,6.70
2015,11,25,16,07,6.70
2015,11,25,16,08,6.70
2015,11,25,16,09,6.60
2015,11,25,16,10,6.50
2015,11,25,16,11,6.40
2015,11,25,16,12,6.40
2015,11,25,16,13,6.30
2015,11,25,16,14,6.30
2015,11,25,16,15,6.20
2015,11,25,16,16,6.20
2015,11,25,16,17,6.10
2015,11,25,16,18,6.10
2015,11,25,16,19,6.00
2015,11,25,16,20,5.90
2015,11,25,16,21,5.90
2015,11,25,16,22,5.80
2015,11,25,16,23,5.80
2015,11,25,16,24,5.70
2015,11,25,16,25,5.60
2015,11,25,16,26,5.60
2015,11,25,16,27,5.60
2015,11,25,16,28,5.50
2015,11,25,16,29,5.40
2015,11,25,16,30,5.40
2015,11,25,16,31,5.40
2015,11,25,16,32,5.30
2015,11,25,16,33,5.30
2015,11,25,16,34,5.20
2015,11,25,16,35,5.20
2015,11,25,16,36,5.20
2015,11,25,16,37,5.10
2015,11,25,16,38,5.10
2015,11,25,16,39,5.10
2015,11,25,16,40,5.00
2015,11,25,16,41,5.00
2015,11,25,16,42,4.90
2015,11,25,16,43,4.90
2015,11,25,16,44,4.80
2015,11,25,16,45,4.80
2015,11,25,16,46,4.80
2015,11,25,16,47,4.70
2015,11,25,16,48,4.70
2015,11,25,16,49,4.60
2015,11,25,16,50,4.60
2015,11,25,16,51,4.50
2015,11,25,16,52,4.40
2015,11,25,16,53,4.40
2015,11,25,16,54,4.30
2015,11,25,16,55,4.20
2015,11,25,16,56,4.20
2015,11,25,16,57,4.10
2015,11,25,16,58,4.00
2015,11,25,16,59,3.90
2015,11,25,17,00,3.80
2015,11,25,17,01,3.80
2015,11,25,17,02,3.70
2015,11,25,17,03,3.60
2015,11,25,17,04,3.50
2015,11,25,17,05,3.40
2015,11,25,17,06,3.40
2015,11,25,17,07,3.30
2015,11,25,17,08,3.30
2015,11,25,17,09,3.20
2015,11,25,17,10,3.20
2015,11,25,17,11,3.10
2015,11,25,17,12,3.00
2015,11,25,17,13,3.00
2015,11,25,17,14,2.90
2015,11,25,17,15,2.90
2015,11,25,17,16,2.80
2015,11,25,17,17,2.80
2015,11,25,17,18,2.70
2015,11,25,17,19,2.70
2015,11,25,17,20,2.60
2015,11,25,17,21,2.60
2015,11,25,17,22,2.50
2015,11,25,17,23,2.50
2015,11,25,17,24,2.40
2015,11,25,17,25,2.40
2015,11,25,17,26,2.40
2015,11,25,17,27,2.30
2015,11,25,17,28,2.30
2015,11,25,17,29,2.30
2015,11,25,17,30,2.20
2015,11,25,17,31,2.20
2015,11,25,17,32,2.20
2015,11,25,17,33,2.10
2015,11,25,17,34,2.10
2015,11,25,17,35,2.10
2015,11,25,17,36,2.00
2015,11,25,17,37,2.00
2015,11,25,17,38,1.90
2015,11,25,17,39,1.90
2015,11,25,17,40,1.90
2015,11,25,17,41,1.90
2015,11,25,17,42,1.80
2015,11,25,17,43,1.80
2015,11,25,17,44,1.80
2015,11,25,17,45,1.70
2015,11,25,17,46,1.70
2015,11,25,17,47,1.70
2015,11,25,17,48,1.70
2015,11,25,17,49,1.60